FW3241 Weather Reports


time (UTC)temp
C
wind
direction
speed
KPH
gust
KPH
rain 1hr
cm
rain 24hr
cm
rain mn
cm
humidity
%
barometer
mb
20260505163020 16 207 1.6 9.7 0.00 0.00 0.00 37 1016.1
20260505161519 16 191 1.6 6.4 0.00 0.00 0.00 37 1016.2
20260505153015 15 214 1.6 8.0 0.00 0.00 0.00 37 1016.3
20260505151512 15 215 0.0 6.4 0.00 0.00 0.00 38 1016.7
20260505140113 13 195 0.0 4.8 0.00 0.00 0.00 43 1016.5
20260505124551 11 230 4.8 12.9 0.00 0.00 0.00 49 1016.3
20260505123053 11 225 0.0 8.0 0.00 0.00 0.00 50 1016.1
20260505121549 10 181 1.6 4.8 0.00 0.00 0.00 51 1016.1
20260505120052 10 216 0.0 6.4 0.00 0.00 0.00 50 1016.0
20260505114557 10 244 4.8 11.3 0.00 0.00 0.00 49 1015.8
20260505113057 10 234 0.0 3.2 0.00 0.00 0.00 50 1015.6
20260505111546 10 236 0.0 8.0 0.00 0.00 0.00 50 1015.6
20260505101551 10 195 0.0 4.8 0.00 0.00 0.00 49 1015.4
20260505100043 10 200 0.0 4.8 0.00 0.00 0.00 49 1015.6
20260505094542 10 208 0.0 6.4 0.00 0.00 0.00 49 1015.4
20260505093042 11 188 0.0 4.8 0.00 0.00 0.00 49 1015.3
20260505091542 11 185 1.6 4.8 0.00 0.00 0.00 48 1015.3
20260505090040 11 197 1.6 4.8 0.00 0.00 0.00 48 1015.5
20260505084537 11 182 3.2 4.8 0.00 0.00 0.00 48 1015.4
20260505083035 11 188 3.2 6.4 0.00 0.00 0.00 48 1015.4
20260505081535 11 186 4.8 12.9 0.00 0.00 0.00 48 1015.4
20260505080033 11 180 1.6 4.8 0.00 0.00 0.00 49 1015.4
20260505074532 11 169 1.6 4.8 0.00 0.00 0.00 48 1015.3
20260505073031 11 194 1.6 4.8 0.00 0.00 0.00 48 1015.2
20260505071533 11 188 3.2 6.4 0.00 0.00 0.00 49 1015.0
20260505070029 11 182 3.2 4.8 0.00 0.00 0.00 48 1015.2
20260505064526 11 169 3.2 8.0 0.00 0.00 0.00 49 1015.3
20260505063025 11 190 1.6 6.4 0.00 0.00 0.00 49 1015.4
20260505061523 11 185 3.2 6.4 0.00 0.00 0.00 48 1015.4
20260505060121 11 201 3.2 6.4 0.00 0.00 0.00 48 1015.6
20260505054520 11 189 1.6 4.8 0.00 0.00 0.00 48 1015.8
20260505053018 11 178 1.6 4.8 0.00 0.00 0.00 48 1016.1
20260505051524 12 222 3.2 11.3 0.00 0.00 0.00 48 1016.1
20260505041515 12 188 1.6 6.4 0.00 0.00 0.00 48 1016.3
20260505040009 12 165 1.6 4.8 0.00 0.00 0.00 48 1016.4
20260505034508 12 186 1.6 4.8 0.00 0.00 0.00 47 1016.5
20260505033012 12 184 1.6 6.4 0.00 0.00 0.00 47 1016.6
20260505031507 12 178 3.2 6.4 0.00 0.00 0.00 47 1016.6
20260505030008 12 175 1.6 11.3 0.00 0.00 0.00 47 1016.7
20260505024511 12 175 1.6 4.8 0.00 0.00 0.00 46 1016.7
20260505023017 12 200 3.2 8.0 0.00 0.00 0.00 46 1016.8
20260505021510 12 198 1.6 4.8 0.00 0.00 0.00 47 1016.9
20260505020006 13 163 0.0 4.8 0.00 0.00 0.00 47 1016.9
20260505014512 13 202 1.6 11.3 0.00 0.00 0.00 48 1016.8
20260505013004 13 196 0.0 3.2 0.00 0.00 0.00 49 1016.8
20260505011504 13 139 0.0 6.4 0.00 0.00 0.00 48 1016.5
20260505010004 13 151 1.6 4.8 0.00 0.00 0.00 47 1016.2
20260505004503 14 180 0.0 3.2 0.00 0.00 0.00 47 1016.1
20260505003002 15 175 0.0 4.8 0.00 0.00 0.00 46 1016.1
20260505001601 15 215 0.0 4.8 0.00 0.00 0.00 44 1015.8
20260505000109 15 221 1.6 6.4 0.00 0.00 0.00 44 1015.7
20260504234600 16 214 1.6 8.0 0.00 0.00 0.00 42 1015.6
20260504233106 16 190 1.6 8.0 0.00 0.00 0.00 41 1015.5
20260504231557 16 161 1.6 4.8 0.00 0.00 0.00 40 1015.5
20260504230104 17 180 1.6 4.8 0.00 0.00 0.00 37 1015.4
20260504224555 17 273 1.6 11.3 0.00 0.00 0.00 36 1015.5
20260504223101 18 178 1.6 6.4 0.00 0.00 0.00 31 1015.5
20260504221553 19 191 1.6 4.8 0.00 0.00 0.00 28 1015.4
20260504220052 18 200 1.6 6.4 0.00 0.00 0.00 23 1015.5
20260504214606 18 159 1.6 8.0 0.00 0.00 0.00 22 1015.7
20260504213057 19 198 1.6 11.3 0.00 0.00 0.00 21 1015.8
20260504211552 20 190 1.6 6.4 0.00 0.00 0.00 20 1015.9
20260504210046 20 216 0.0 6.4 0.00 0.00 0.00 21 1016.1
20260504204550 20 187 1.6 8.0 0.00 0.00 0.00 22 1016.1
20260504203045 20 225 1.6 4.8 0.00 0.00 0.00 24 1016.2
20260504201558 20 205 1.6 8.0 0.00 0.00 0.00 23 1016.4
20260504200044 20 246 1.6 8.0 0.00 0.00 0.00 25 1016.5
20260504194541 20 242 1.6 6.4 0.00 0.00 0.00 26 1016.7
20260504193037 19 242 3.2 6.4 0.00 0.00 0.00 27 1017.1
20260504191537 20 242 4.8 8.0 0.00 0.00 0.00 25 1017.3
20260504190033 20 244 3.2 8.0 0.00 0.00 0.00 22 1017.4
20260504184535 20 221 3.2 11.3 0.00 0.00 0.00 20 1017.5
20260504183031 20 217 3.2 8.0 0.00 0.00 0.00 18 1017.6
20260504181532 20 217 1.6 8.0 0.00 0.00 0.00 22 1017.6
20260504180024 19 224 0.0 8.0 0.00 0.00 0.00 25 1017.8
20260504174522 18 211 0.0 8.0 0.00 0.00 0.00 29 1018.1
20260504173017 18 230 3.2 6.4 0.00 0.00 0.00 29 1018.4
20260504171513 17 230 1.6 8.0 0.00 0.00 0.00 30 1018.5